User: anonymous   Login
Location: Unspecified
(0.0000°N, 0.0000°E)
Time: 07:23:50
(UTC+00:00)
Language:

GRACE-FO 1 - Orbit

View from above orbital plane
View from above orbital plane
View from above satellite
View from above satellite

Ground track
Ground track

The orbit data is extracted from the following two-line orbital elements,

1 43476U 18047A   21139.15879612 +.00000026  00000-0 +10734-5 0    00
2 43476  88.9800  92.1811 0019836  65.0811  34.1102 15.24262182166354
Epoch (UTC): 19 May 2021 03:48:39
Eccentricity: 0.0019836
inclination: 88.9800°
perigee height: 479 km
apogee height: 506 km
right ascension of ascending node: 92.1811°
argument of perigee: 65.0811°
revolutions per day: 15.24262182
mean anomaly at epoch: 34.1102°
orbit number at epoch: 16635

The dashed part of the orbit path shows where the satellite is in the earth's shadow,  

DLR